[[{"header":{"parameterUnit":"m.s-1","parameterCategory":1,"la1":30.2991,"la2":30.254,"lo1":-89.0895,"lo2":-89.0444,"dy":0.0017,"dx":0.0017,"nx":28,"ny":28,"refTime":"2025-05-28T09:00:00:Z","depth":0,"parameterNumber":2,"parameterNumberName":"U-component_of_WINDS"},"data":[0,0,0,0,0,0,0,0,0,0,0,0,0,0,0,0,0,0,0,0,0,0,0,0,0,0,0,0,0,0,0,0,0,0,0,0,0,0,0,0,0,0,0,0,0,0,0,0,0,0,0,0,0,0,0,0,0,0,3.2745,3.2743,0,3.2605,3.2604,3.2602,3.2457,3.2455,3.2453,3.2451,3.2307,3.2305,3.2303,0,0,0,0,0,0,0,0,0,0,0,0,0,3.2884,3.2882,3.2745,3.2743,3.2741,3.2606,3.2604,3.2602,3.2457,3.2455,3.2453,3.245,3.2308,3.2306,3.2303,0,0,0,0,0,0,0,0,0,0,0,0,0,3.2792,3.2881,3.2745,3.2653,3.2643,3.2606,3.2604,3.2601,3.2458,3.2455,3.2452,3.2449,3.2309,3.2306,3.2303,3.2345,0,0,3.2294,3.2293,0,0,0,0,0,0,0,0,3.2797,3.2787,3.2668,3.2659,3.2649,3.2546,3.26,3.2515,3.2459,3.2528,3.2451,3.2448,3.2389,3.2379,3.236,3.2338,3.2332,3.2294,3.2292,3.2291,3.229,0,0,0,0,0,0,0,3.2804,3.2792,3.269,3.2667,3.2655,3.2618,3.2601,3.2583,3.2477,3.2522,3.2511,3.2497,3.2383,3.2363,3.2355,3.233,3.2294,3.2291,3.2289,3.2288,3.233,3.2333,0,0,0,0,0,0,3.2824,3.2798,3.2694,3.2685,3.2717,3.2618,3.2599,3.2582,3.2477,3.2458,3.25,3.2491,3.2369,3.2359,3.235,3.2387,3.2291,3.2288,3.2286,3.2327,3.2331,3.2334,0,0,0,0,0,0,3.2828,3.2816,3.27,3.2739,3.2721,3.2619,3.26,3.2581,3.256,3.246,3.244,3.2498,3.2366,3.2354,3.2346,3.238,3.2286,3.2284,3.2324,3.2328,3.2332,3.2465,0,0,0,0,0,0,3.2833,3.2819,3.2834,3.274,3.272,3.27,3.2602,3.258,3.2555,3.2542,3.2454,3.2436,3.2363,3.2351,3.2343,3.2374,3.2281,3.232,3.2326,3.2331,3.2457,3.2473,3.2487,0,0,0,0,0,3.2838,3.2878,3.2836,3.2824,3.2737,3.2702,3.269,3.2606,3.2559,3.2572,3.2508,3.2439,3.2379,3.2352,3.2341,3.2372,3.2318,3.2324,3.233,3.245,3.247,3.2487,0,0,0,0,0,0,3.2978,3.2864,3.2816,3.2827,3.2775,3.2678,3.2692,3.263,3.259,3.258,3.2477,3.2458,3.2461,3.2416,3.2388,3.2405,3.2338,3.2343,3.2433,3.2451,3.2466,3.2474,3.2279,0,0,0,0,0,3.3011,3.2993,3.2893,3.2913,3.2889,3.2796,3.2777,3.2717,3.2659,3.2636,3.2571,3.2517,3.2485,3.2466,3.2432,3.2452,3.2427,3.2468,3.2483,3.2496,3.2499,3.2501,3.2517,3.2355,3.2355,3.2355,0,0,3.3077,3.3012,3.3007,3.2939,3.2892,3.2873,3.2778,3.2764,3.2748,3.2634,3.2621,3.2572,3.2504,3.2509,3.2508,3.2472,3.2539,3.2504,3.2515,3.2511,3.251,3.2525,3.2539,3.236,3.2359,3.2358,0,0,3.3186,3.3138,3.3146,3.3101,3.303,3.2968,3.297,3.2882,3.2844,3.283,3.2743,3.2723,3.2672,3.2626,3.2596,3.2688,3.2621,3.2681,3.2758,3.2761,3.2773,3.2784,3.2812,3.2824,3.2686,3.2686,3.2686,0,3.3277,3.3246,3.3158,3.3148,3.3119,3.3015,3.3021,3.2982,3.2904,3.2886,3.2847,3.2778,3.2726,3.2716,3.2739,3.272,3.2716,3.2688,3.2779,3.2789,3.2797,3.2822,3.2834,3.2693,3.2692,3.2692,3.2691,0,3.3358,3.3339,3.3354,3.328,3.3254,3.3252,3.3162,3.3146,3.3088,3.303,3.3015,3.2949,3.2897,3.2891,3.2836,3.2873,3.2852,3.2799,3.2728,3.2821,3.2843,3.2852,3.2703,3.2701,3.2699,3.2697,0,0,3.3549,3.3427,3.3434,3.3397,3.3312,3.3294,3.3288,3.3237,3.3223,3.3174,3.3162,3.3121,3.307,3.3036,3.2974,3.2978,3.3049,3.2923,3.2919,3.2944,3.308,3.3117,3.313,3.3006,3.3008,3.3009,3.3084,0,3.364,3.362,3.3541,3.3544,3.3522,3.3424,3.3417,3.3363,3.3309,3.3281,3.3221,3.3191,3.3128,3.3106,3.3106,3.3041,3.3074,3.3035,3.2991,3.299,3.3005,3.3142,3.3182,3.3255,3.3092,3.3094,3.3095,0,3.3743,3.3698,3.37,3.3612,3.36,3.3595,3.3541,3.3518,3.3454,3.3413,3.3376,3.3306,3.3291,3.323,3.3205,3.318,3.3158,3.3123,3.3124,3.3112,3.3045,3.3129,3.3277,3.3287,3.3108,3.3107,3.3106,0,3.3875,3.3817,3.3808,3.3781,3.3681,3.3679,3.3637,3.357,3.3544,3.3497,3.3478,3.3431,3.3404,3.3368,3.3287,3.3251,3.3269,3.3202,3.3232,3.3234,3.3236,3.3236,3.3378,3.3232,3.3231,3.3231,3.3231,0,3.3981,3.3984,3.3865,3.386,3.386,3.3769,3.377,3.3719,3.3661,3.3642,3.3556,3.354,3.3436,3.3408,3.3345,3.3331,3.3321,3.3285,3.3267,3.329,3.3294,3.327,3.3261,3.3234,3.3233,3.3233,3.3232,0,3.4127,3.4048,3.4031,3.3938,3.3914,3.3918,3.3837,3.3826,3.3767,3.3744,3.3734,3.364,3.3602,3.3519,3.3459,3.3416,3.3416,3.3387,3.3437,3.3425,3.3457,3.3453,3.3584,3.3594,3.3447,3.3449,3.345,0,3.4197,3.4196,3.4103,3.4084,3.4045,3.4017,3.3989,3.39,3.3875,3.3801,3.3799,3.3755,3.3713,3.3657,3.3582,3.3535,3.3501,3.3551,3.3493,3.3515,3.3495,3.3494,3.3491,3.3562,3.3564,3.3565,3.3567,0,3.4328,3.4288,3.4253,3.4203,3.4173,3.4129,3.4081,3.4071,3.3969,3.3945,3.3904,3.3873,3.3811,3.3766,3.3707,3.3662,3.3596,3.3586,3.3589,3.3609,3.3636,3.3616,3.3465,3.3582,3.3581,3.3579,3.3579,3.3578,3.4433,3.4427,3.4359,3.4321,3.4276,3.4233,3.4217,3.4156,3.4121,3.4063,3.4013,3.3977,3.3911,3.3825,3.3784,3.3753,3.372,3.3727,3.3727,3.3729,3.3736,3.3646,3.3743,3.3742,3.3742,3.3741,3.3741,0,3.4555,3.4507,3.4473,3.4408,3.4378,3.4321,3.4264,3.4242,3.4211,3.4156,3.4117,3.4069,3.4025,3.3948,3.3896,3.3886,3.3854,3.3875,3.3872,3.3862,3.3771,3.377,3.3901,3.3901,3.3901,3.3901,3.3901,3.3901,3.4614,3.4599,3.4552,3.4513,3.4464,3.4428,3.44,3.4358,3.4313,3.4264,3.4227,3.4177,3.4111,3.4054,3.401,3.3989,3.3971,3.4001,3.3969,3.3884,3.3869,3.3854,3.3853,3.3999,3.3999,3.4061,3.4062,3.4063]},{"header":{"parameterUnit":"m.s-1","parameterCategory":1,"la1":30.2991,"la2":30.254,"lo1":-89.0895,"lo2":-89.0444,"dy":0.0017,"dx":0.0017,"nx":28,"ny":28,"refTime":"2025-05-28T09:00:00:Z","depth":0,"parameterNumber":3,"parameterNumberName":"V-component_of_WINDS"},"data":[0,0,0,0,0,0,0,0,0,0,0,0,0,0,0,0,0,0,0,0,0,0,0,0,0,0,0,0,0,0,0,0,0,0,0,0,0,0,0,0,0,0,0,0,0,0,0,0,0,0,0,0,0,0,0,0,0,0,5.103,5.1033,0,5.1292,5.1295,5.1298,5.1327,5.1325,5.1322,5.132,5.1576,5.1584,5.1594,0,0,0,0,0,0,0,0,0,0,0,0,0,5.0537,5.0546,5.103,5.1033,5.1036,5.1292,5.1295,5.1299,5.1328,5.1325,5.1322,5.1319,5.1572,5.1583,5.1594,0,0,0,0,0,0,0,0,0,0,0,0,0,5.077,5.0549,5.1029,5.1082,5.1089,5.1291,5.1296,5.13,5.1329,5.1325,5.1321,5.1317,5.1569,5.1582,5.1596,5.176,0,0,5.1638,5.1644,0,0,0,0,0,0,0,0,5.0757,5.0788,5.1071,5.1079,5.1087,5.1274,5.1216,5.1454,5.133,5.1237,5.132,5.1315,5.1477,5.1498,5.1556,5.1772,5.1782,5.164,5.1648,5.1654,5.1658,0,0,0,0,0,0,0,5.0741,5.0777,5.1133,5.1075,5.1085,5.1087,5.1116,5.1261,5.1375,5.1245,5.1248,5.1279,5.1481,5.1542,5.1562,5.1786,5.1639,5.1651,5.166,5.1665,5.2141,5.2146,0,0,0,0,0,0,5.0717,5.0763,5.1125,5.1141,5.091,5.1099,5.1131,5.1217,5.1374,5.1395,5.1282,5.128,5.1521,5.1546,5.1571,5.1768,5.1654,5.1667,5.1675,5.2137,5.2142,5.2147,0,0,0,0,0,0,5.0706,5.0749,5.1114,5.0953,5.1,5.1112,5.1208,5.1225,5.1286,5.1403,5.1421,5.1325,5.1519,5.1552,5.1712,5.1778,5.1673,5.1686,5.2132,5.2139,5.2145,5.2167,0,0,0,0,0,0,5.0692,5.0745,5.0813,5.0955,5.1009,5.1256,5.1212,5.1233,5.1312,5.1311,5.1448,5.1466,5.1518,5.1691,5.1726,5.1795,5.1696,5.2127,5.2135,5.2143,5.2161,5.2173,5.2184,0,0,0,0,0,5.0674,5.0807,5.0816,5.0859,5.1096,5.126,5.129,5.135,5.1317,5.1383,5.1456,5.1462,5.1766,5.1707,5.1746,5.1821,5.2123,5.2133,5.2142,5.2155,5.2171,5.2184,0,0,0,0,0,0,5.0666,5.0827,5.0838,5.1022,5.1127,5.1264,5.1349,5.1366,5.1479,5.1473,5.1539,5.157,5.1726,5.179,5.1722,5.1984,5.194,5.1958,5.1936,5.1952,5.1964,5.1943,5.1708,0,0,0,0,0,5.0686,5.0811,5.0942,5.1091,5.1143,5.1237,5.1311,5.1348,5.1458,5.1502,5.1587,5.169,5.1807,5.1884,5.1999,5.217,5.2197,5.224,5.2252,5.2261,5.2274,5.2363,5.2382,5.2179,5.2179,5.2179,0,0,5.0728,5.0831,5.0905,5.1092,5.1178,5.1299,5.1274,5.1405,5.1494,5.152,5.1677,5.1743,5.1861,5.2026,5.2102,5.2083,5.2337,5.2273,5.228,5.2289,5.2375,5.2394,5.2411,5.2186,5.2185,5.2184,0,0,5.0865,5.0958,5.109,5.1177,5.1308,5.1369,5.14,5.1535,5.158,5.174,5.176,5.1864,5.2067,5.2149,5.2217,5.238,5.2387,5.2416,5.2476,5.2561,5.2577,5.2592,5.2645,5.2664,5.2429,5.243,5.243,0,5.0899,5.1088,5.1155,5.1285,5.1363,5.1395,5.1525,5.1604,5.1765,5.1815,5.1793,5.2046,5.2128,5.231,5.2349,5.2405,5.2437,5.2399,5.2571,5.2586,5.26,5.2651,5.2671,5.2432,5.2432,5.2431,5.2431,0,5.112,5.125,5.134,5.1497,5.1586,5.1715,5.1795,5.1876,5.1904,5.1965,5.2122,5.2222,5.2355,5.2402,5.243,5.2586,5.2569,5.2558,5.2515,5.2621,5.2669,5.269,5.2435,5.2434,5.2434,5.2433,0,0,5.1261,5.1452,5.1483,5.1552,5.1698,5.1796,5.1923,5.2058,5.2123,5.2231,5.2335,5.2505,5.2494,5.2571,5.2609,5.2684,5.28,5.2663,5.2667,5.2681,5.297,5.2975,5.2998,5.2807,5.2811,5.2814,5.2959,0,5.1412,5.1645,5.1706,5.1901,5.2018,5.2048,5.2158,5.2255,5.2315,5.2418,5.2481,5.2599,5.2579,5.2625,5.2702,5.277,5.2858,5.2761,5.2898,5.2902,5.2865,5.3024,5.3031,5.3163,5.2979,5.2982,5.2985,0,5.162,5.1734,5.1942,5.2068,5.2119,5.2217,5.2342,5.2443,5.2551,5.2588,5.2673,5.2702,5.2828,5.278,5.2952,5.2884,5.2944,5.2985,5.2991,5.3004,5.2948,5.3036,5.3208,5.3225,5.3017,5.3014,5.3012,0,5.1695,5.1901,5.2051,5.211,5.2262,5.2329,5.2394,5.25,5.2574,5.2681,5.2729,5.2848,5.2912,5.3001,5.3059,5.302,5.3224,5.3182,5.3253,5.3251,5.3293,5.3289,5.3471,5.3337,5.3337,5.3336,5.3336,0,5.1855,5.1979,5.2086,5.2178,5.2316,5.2382,5.2515,5.258,5.2673,5.2773,5.2805,5.2897,5.297,5.307,5.3116,5.3248,5.3277,5.3306,5.3316,5.3302,5.3297,5.3339,5.333,5.3342,5.334,5.3339,5.3338,0,5.1962,5.204,5.2204,5.2334,5.2369,5.2464,5.2573,5.2659,5.2719,5.2845,5.2878,5.2969,5.3089,5.3156,5.3305,5.3335,5.348,5.3488,5.3445,5.3449,5.3514,5.3505,5.3727,5.3757,5.3606,5.3608,5.3609,0,5.2058,5.2154,5.2294,5.2366,5.2433,5.2547,5.2624,5.269,5.2768,5.2896,5.2965,5.3087,5.3188,5.3376,5.3452,5.3564,5.3572,5.3642,5.3589,5.3569,5.3567,5.356,5.3567,5.365,5.3651,5.3652,5.3653,0,5.2217,5.225,5.2362,5.2485,5.2576,5.2676,5.2775,5.283,5.2911,5.2995,5.312,5.3198,5.335,5.3468,5.3586,5.3647,5.3661,5.367,5.3691,5.3676,5.3645,5.3658,5.3466,5.3664,5.3663,5.3662,5.3661,5.3661,5.2319,5.2404,5.2515,5.2636,5.2718,5.2808,5.2895,5.2965,5.3071,5.3203,5.3234,5.3363,5.3462,5.3623,5.3687,5.3784,5.3771,5.3804,5.3811,5.3817,5.3817,5.3632,5.3806,5.3806,5.3806,5.3806,5.3806,0,5.2476,5.2548,5.266,5.2797,5.2891,5.2901,5.3009,5.3085,5.3199,5.3293,5.3392,5.353,5.3644,5.3729,5.3843,5.3904,5.3913,5.3932,5.3926,5.3938,5.3825,5.3793,5.3922,5.3922,5.3922,5.3922,5.3922,5.3922,5.2568,5.2712,5.2757,5.2938,5.3008,5.3138,5.3197,5.3278,5.3353,5.3508,5.3604,5.366,5.3748,5.3869,5.3971,5.3992,5.403,5.4047,5.4068,5.396,5.3947,5.3935,5.3905,5.4056,5.4056,5.4174,5.4175,5.4176]}]]